Home > Weather > Bayreuth > Past weeks

Flag for Germany Past Weather in Bayreuth, Bavaria, Germany — Yesterday and Last 2 Weeks

Now
68 °F

Mostly cloudy.


Feels Like: 68 °F
Forecast: 52 / 70 °F
Wind: 7 mph from Southwest

Location: Grafenwoehr

Current Time: Jun 26, 2016 at 5:31:23 PM

Latest Report: Jun 26, 2016 at 4:58 PM


Visibility: N/A

Pressure: 30.05 "Hg

Humidity: 49%

Dew Point: 48 °F

Location of BayreuthLocation

Past Weather in Bayreuth — Graph

°F

Bayreuth Temperature Yesterday

Maximum temperature yesterday: 82 °F (at 2:58 PM)
Minimum temperature yesterday: 61 °F (at 11:58 PM)
Average temperature yesterday: 71 °F

High & Low Weather Summary for the Past Weeks

 TemperatureHumidityPressure
High91 °F (Jun 24, 4:58 PM)100% (Jun 12, 3:01 AM)30.27 "Hg (Jun 12, 3:01 AM)
Low45 °F (Jun 18, 4:58 AM)28% (Jun 24, 4:58 PM)29.51 "Hg (Jun 14, 5:58 PM)
Average62 °F79%29.90 "Hg
* Reported Jun 11 3:03 PM — Jun 26 3:58 PM, Bayreuth, Weather by CustomWeather, © 2016

Note: Actual official high and low records may vary slightly from our data, if they occured in-between our weather recording intervals... More about our weather records

Advertising

Bayreuth Weather History for the Previous 24 Hours

Scroll right to see more
 ConditionsComfort  
Time TempWeatherWind HumidityBarometerVisibility
3:58 PM
Sun, Jun 26
68 °FOvercast.7 mph49%30.06 "HgN/A
2:58 PM68 °FScattered clouds.3 mph49%30.04 "HgN/A
1:58 PM68 °FBroken clouds.8 mph53%30.06 "HgN/A
12:58 PM68 °FScattered clouds.5 mph49%30.06 "HgN/A
11:58 AM64 °FPartly sunny.8 mph56%30.07 "HgN/A
10:58 AM63 °FBroken clouds.3 mph68%30.08 "HgN/A
9:58 AM59 °FMore clouds than sun.6 mph77%30.09 "HgN/A
9:04 AM59 °FMostly cloudy.8 mph77%30.09 "HgN/A
7:58 AM57 °FOvercast.6 mph88%30.04 "HgN/A
6:58 AM59 °FOvercast.6 mph77%30.04 "HgN/A
5:58 AM57 °FMostly cloudy.6 mph88%30.03 "HgN/A
4:58 AM57 °FOvercast.9 mph88%30.01 "HgN/A
3:58 AM57 °FMostly cloudy.7 mph94%29.99 "HgN/A
2:58 AM59 °FOvercast.9 mph88%29.96 "HgN/A
1:58 AM59 °FLow clouds.7 mph94%29.96 "HgN/A
1:04 AM59 °FLow clouds.8 mph100%29.99 "HgN/A
11:58 PM
Sat, Jun 25
61 °FMostly cloudy.9 mph94%29.95 "HgN/A
11:04 PM63 °FLight rain. Overcast.7 mph100%29.98 "HgN/A
9:58 PM63 °FLight rain. Fog.1 mph94%29.94 "Hg6 mi
9:04 PM63 °FThundershowers. Fog.9 mph94%29.92 "Hg2 mi
8:58 PM63 °FHeavy rain. Fog.9 mph94%29.88 "Hg1 mi
7:58 PM77 °FSunny.6 mph54%29.79 "HgN/A
6:58 PM81 °FScattered clouds.10 mph51%29.80 "HgN/A
5:58 PM82 °FSunny.14 mph48%29.79 "HgN/A
Weather by CustomWeather, © 2016

See weather overviewHow to use our weather pages